Flag for Guadeloupe Weather past 2 weeks in Basse-Terre, Guadeloupe

Now
73 °F

Passing clouds.


Feels Like: 74 °F
Forecast: 74 / 78 °F
Wind: 6 mph from East

Location: Le Raizet - Guadeloupe


UV Index: 10 (Very high)

Visibility: N/A


Pressure: 30.01 "Hg

Humidity: 78%

Dew point: 66 °F

Location of Basse-TerreLocation

Historic Weather in Basse-Terre

°F

Basse-Terre temperature yesterday

Maximum temperature yesterday: 82 °F (at 9:00 AM)
Minimum temperature yesterday: 73 °F (at 1:30 AM)
Average temperature yesterday: 77 °F

Past Weeks' High & Low Weather Summary

 TemperatureHumidityPressure
High88 °F (Apr 9, 2:00 PM)100% (Apr 5, 1:00 AM)30.12 "Hg (Apr 5, 1:00 AM)
Low68 °F (Apr 4, 6:00 AM)33% (Apr 9, 1:00 PM)29.86 "Hg (Apr 15, 3:30 PM)
Average78 °F71%30.01 "Hg
* Reported Apr 4 3:00 AM — Apr 19 3:00 AM, Basse-Terre, Weather by CustomWeather, © 2014

Note: Actual official high and low records may vary slightly from our data, if they occured in-between our weather recording intervals... More about our weather records

Advertising

Historic Weather Conditions — Data for Previous 24 hours

 ConditionsComfort  
Time TempWeatherWind HumidityBarometerVisibility
3:00 AM
Apr 19
75 °FPassing clouds.12 mph78%30.01 "HgN/A
2:30 AM73 °FPassing clouds.8 mph83%30.01 "HgN/A
2:00 AM75 °FPassing clouds.10 mph78%30.01 "HgN/A
1:30 AM73 °FPartly cloudy.9 mph89%30.01 "HgN/A
1:00 AM73 °FPassing clouds.3 mph83%30.01 "HgN/A
12:30 AM73 °FPartly cloudy.8 mph83%30.01 "HgN/A
12:00 AM75 °FPassing clouds.7 mph78%30.04 "HgN/A
11:30 PM
Apr 18
75 °FPartly cloudy.9 mph78%30.04 "HgN/A
11:00 PM75 °FPassing clouds.6 mph78%30.04 "HgN/A
10:30 PM75 °FClear.7 mph78%30.04 "HgN/A
10:00 PM75 °FMild.7 mph78%30.04 "HgN/A
9:30 PM75 °FPassing clouds.9 mph78%30.04 "HgN/A
9:00 PM75 °FPassing clouds.8 mph78%30.04 "HgN/A
8:30 PM75 °FMostly cloudy.9 mph78%30.01 "HgN/A
8:00 PM75 °FPartly cloudy.7 mph78%30.01 "HgN/A
7:30 PM75 °FPassing clouds.7 mph78%30.01 "HgN/A
7:00 PM77 °FPassing clouds.7 mph74%30.01 "HgN/A
6:30 PM77 °FPassing clouds.8 mph69%30.01 "HgN/A
6:00 PM77 °FScattered clouds.9 mph74%29.98 "HgN/A
5:30 PM77 °FBroken clouds.12 mph74%29.98 "HgN/A
5:00 PM81 °FScattered clouds.12 mph66%29.98 "HgN/A
4:30 PM79 °FScattered clouds.9 mph70%29.98 "HgN/A
4:00 PM79 °FSprinkles. Scattered clouds.14 mph70%29.98 "HgN/A
3:30 PM82 °FScattered clouds.16 mph58%29.98 "HgN/A
3:00 PM81 °FScattered clouds.14 mph66%29.98 "HgN/A
2:30 PM77 °FSprinkles. Partly sunny.12 mph74%29.98 "HgN/A
1:30 PM82 °FPartly sunny.14 mph58%29.98 "HgN/A
1:00 PM82 °FScattered clouds.13 mph66%30.01 "HgN/A
12:30 PM79 °FScattered clouds.13 mph74%30.01 "HgN/A
12:00 PM81 °FScattered clouds.13 mph66%30.01 "HgN/A
11:30 AM81 °FScattered clouds.12 mph70%30.01 "HgN/A
11:00 AM79 °FScattered clouds.16 mph74%30.04 "HgN/A
10:30 AM79 °FSprinkles. Scattered clouds.14 mph70%30.04 "HgN/A
10:00 AM79 °FScattered clouds.16 mph70%30.04 "HgN/A
9:30 AM79 °FScattered clouds.14 mph70%30.04 "HgN/A
9:00 AM82 °FScattered clouds.16 mph58%30.04 "HgN/A
8:30 AM79 °FScattered clouds.8 mph74%30.04 "HgN/A
8:00 AM77 °FScattered clouds.10 mph79%30.04 "HgN/A
7:30 AM75 °FSprinkles. Scattered clouds.13 mph83%30.04 "HgN/A
7:00 AM75 °FOvercast.9 mph78%30.01 "HgN/A
6:30 AM73 °FPartly sunny.12 mph83%30.01 "HgN/A
6:00 AM75 °FPartly sunny.5 mph74%29.98 "HgN/A
5:30 AM73 °FPassing clouds.6 mph78%29.98 "HgN/A
5:00 AM73 °FPassing clouds.6 mph78%29.98 "HgN/A
4:30 AM75 °FPassing clouds.8 mph74%29.98 "HgN/A
4:00 AM75 °FMild.6 mph74%29.98 "HgN/A
Weather by CustomWeather, © 2014

See weather overview